User: anonymous   Login
Location: Montague
(41.3030°N, 74.7940°W)
Time: 04:49:35
(UTC-05:00)
Language:

Cosmos 1461 - Orbit

View from above orbital plane
View from above orbital plane
View from above satellite
View from above satellite

Ground track
Ground track

The orbit data is extracted from the following two-line orbital elements,

1 14064U 83044A   16342.54318575  .00000703  00000-0  77185-4 0  9990
2 14064  64.9998 157.6064 0088083 127.5749 233.3409 14.93365868694739
Epoch (UTC): 07 December 2016 13:02:11
Eccentricity: 0.0088083
inclination: 64.9998°
perigee height: 526 km
apogee height: 649 km
right ascension of ascending node: 157.6064°
argument of perigee: 127.5749°
revolutions per day: 14.93365868
mean anomaly at epoch: 233.3409°
orbit number at epoch: 69473

The dashed part of the orbit path shows where the satellite is in the earth's shadow,  

DLR